FW7766 Weather Reports


Display with metric or nautical units.
time (UTC)temp
F
wind
direction
speed
MPH
gust
MPH
rain 1hr
in
rain 24hr
in
rain mn
in
humidity
%
barometer
mb
20260507133545 63 0.0 0.0 0.02 0.22 0.18 98 1010.4
20260507132541 63 0.0 0.0 0.04 0.22 0.18 98 1010.2
20260507131538 63 0.0 0.0 0.05 0.22 0.18 98 1010.4
20260507130534 62 0.0 0.0 0.07 0.22 0.18 98 1010.3
20260507125531 62 0.0 0.0 0.06 0.21 0.17 98 1010.7
20260507124547 62 0.0 0.0 0.06 0.20 0.15 98 1011.1
20260507123524 62 0.0 0.0 0.07 0.20 0.15 98 1011.5
20260507122521 62 0.0 0.0 0.07 0.19 0.14 98 1011.8
20260507121517 62 0.0 0.0 0.06 0.18 0.13 98 1011.3
20260507120614 62 0.0 0.0 0.04 0.15 0.11 98 1011.3
20260507115611 62 0.0 0.0 0.04 0.15 0.11 98 1011.1
20260507114607 62 0.0 0.0 0.02 0.14 0.09 98 1011.4
20260507113604 62 0.0 0.0 0.01 0.13 0.08 98 1011.3
20260507112601 62 0.0 0.0 0.00 0.12 0.07 98 1010.9
20260507111558 62 0.0 0.0 0.00 0.12 0.07 97 1010.9
20260507110553 62 0.0 0.0 0.00 0.12 0.07 97 1010.7
20260507105550 62 0.0 0.0 0.00 0.12 0.07 97 1010.5
20260507104546 62 0.0 0.0 0.00 0.12 0.07 97 1010.6
20260507103542 62 0.0 0.0 0.00 0.12 0.07 97 1010.7
20260507102539 62 0.0 0.0 0.00 0.12 0.07 97 1010.6
20260507101535 62 0.0 0.0 0.00 0.12 0.07 97 1010.4
20260507100532 62 0.0 0.0 0.00 0.12 0.07 97 1010.5
20260507095530 62 0.0 0.0 0.00 0.12 0.07 97 1010.7
20260507094525 62 0.0 0.0 0.00 0.12 0.07 97 1010.6
20260507093522 62 0.0 0.0 0.00 0.12 0.07 97 1010.7
20260507092519 62 0.0 0.0 0.00 0.12 0.07 97 1010.7
20260507091555 62 0.0 0.0 0.00 0.12 0.07 97 1010.3
20260507090612 62 0.0 0.0 0.00 0.12 0.07 97 1010.4
20260507085629 62 0.0 0.0 0.00 0.12 0.07 97 1011.2
20260507084625 62 0.0 0.0 0.00 0.12 0.07 97 1011.0
20260507083603 62 270 1.0 2.0 0.00 0.12 0.07 97 1011.0
20260507082558 62 0.0 0.0 0.00 0.12 0.07 97 1010.5
20260507081555 62 0.0 0.0 0.00 0.12 0.07 97 1010.6
20260507080552 62 0.0 0.0 0.00 0.12 0.07 97 1010.8
20260507075548 62 0.0 0.0 0.01 0.12 0.07 97 1010.5
20260507074545 62 0.0 0.0 0.05 0.12 0.07 97 1010.7
20260507073601 62 0.0 1.0 0.05 0.12 0.07 96 1010.5
20260507072538 62 0.0 0.0 0.05 0.12 0.07 96 1010.7
20260507071535 62 0.0 0.0 0.05 0.12 0.07 96 1011.2
20260507070531 62 270 0.0 2.0 0.05 0.12 0.07 96 1011.0
20260507065528 62 0.0 0.0 0.04 0.11 0.06 96 1010.8
20260507064525 63 0.0 0.0 0.00 0.07 0.02 96 1011.2
20260507063521 63 0.0 0.0 0.01 0.07 0.02 96 1011.2
20260507062518 63 0.0 0.0 0.01 0.07 0.02 96 1011.4
20260507061614 63 0.0 0.0 0.01 0.07 0.02 96 1011.8
20260507060610 63 0.0 0.0 0.01 0.07 0.02 96 1012.0
20260507055605 63 0.0 0.0 0.01 0.07 0.02 96 1012.5
20260507054602 63 0.0 0.0 0.02 0.07 0.02 96 1012.9
20260507053559 63 0.0 0.0 0.01 0.06 0.01 96 1012.9
20260507052555 63 0.0 0.0 0.01 0.06 0.01 96 1012.8
20260507051552 63 0.0 0.0 0.01 0.06 0.01 96 1013.0
20260507050548 63 0.0 0.0 0.01 0.06 0.01 95 1013.2
20260507045545 63 0.0 0.0 0.01 0.06 0.01 95 1013.1
20260507044542 63 0.0 0.0 0.00 0.05 0.00 95 1013.4
20260507043538 64 0.0 0.0 0.00 0.05 0.00 91 1013.0
20260507042535 64 0.0 0.0 0.00 0.05 0.00 91 1012.9
20260507041612 64 0.0 0.0 0.00 0.05 0.00 91 1012.6
20260507040528 64 0.0 0.0 0.01 0.05 0.00 90 1012.6
20260507035524 64 0.0 0.0 0.01 0.05 0.05 90 1012.4
20260507034541 64 0.0 0.0 0.01 0.05 0.05 90 1012.4
20260507033518 64 0.0 0.0 0.02 0.05 0.05 90 1012.1
20260507032635 65 0.0 0.0 0.02 0.05 0.05 90 1012.3
20260507031611 65 0.0 0.0 0.02 0.05 0.05 90 1012.2
20260507030608 65 0.0 0.0 0.01 0.04 0.04 90 1013.8
20260507025604 65 0.0 0.0 0.02 0.04 0.04 89 1013.7
20260507024601 66 0.0 0.0 0.02 0.04 0.04 89 1013.6
20260507023558 66 0.0 0.0 0.01 0.02 0.02 88 1013.4
20260507022554 66 0.0 0.0 0.01 0.02 0.02 86 1013.2
20260507021551 66 0.0 0.0 0.01 0.02 0.02 84 1013.1
20260507020548 66 0.0 0.0 0.01 0.02 0.02 78 1012.9
20260507015544 66 0.0 0.0 0.00 0.01 0.01 76 1012.8
20260507014541 66 0.0 0.0 0.01 0.01 0.01 71 1012.6
20260507013537 66 0.0 0.0 0.01 0.01 0.01 69 1012.3
20260507012534 66 0.0 0.0 0.01 0.01 0.01 68 1012.2
20260507011530 66 0.0 0.0 0.01 0.01 0.01 67 1011.9
20260507010547 66 0.0 0.0 0.01 0.01 0.01 66 1012.1
20260507005524 66 0.0 0.0 0.01 0.01 0.01 66 1012.3
20260507004520 66 0.0 0.0 0.00 0.00 0.00 66 1012.5
20260507003537 66 0.0 0.0 0.00 0.00 0.00 65 1012.2
20260507002614 67 0.0 0.0 0.00 0.00 0.00 65 1012.5
20260507001611 67 0.0 0.0 0.00 0.00 0.00 65 1012.2
20260507000607 67 0.0 0.0 0.00 0.00 0.00 62 1011.9
20260506235604 68 0.0 0.0 0.00 0.00 0.00 62 1012.0
20260506234559 68 0.0 0.0 0.00 0.00 0.00 61 1012.2
20260506233555 68 0.0 0.0 0.00 0.00 0.00 60 1011.9
20260506232552 69 0.0 1.0 0.00 0.00 0.00 59 1011.7
20260506231548 69 0.0 0.0 0.00 0.00 0.00 59 1011.9
20260506230545 69 0.0 0.0 0.00 0.00 0.00 58 1012.2
20260506225540 70 0.0 0.0 0.00 0.00 0.00 57 1012.2
20260506224557 70 0.0 0.0 0.00 0.00 0.00 57 1012.6
20260506223534 70 0.0 0.0 0.00 0.00 0.00 57 1012.8
20260506222530 70 0.0 1.0 0.00 0.00 0.00 57 1012.8
20260506221527 70 270 0.0 1.0 0.00 0.00 0.00 57 1012.7
20260506220544 70 270 1.0 1.0 0.00 0.00 0.00 57 1012.7
20260506215521 70 0.0 0.0 0.00 0.00 0.00 57 1012.7
20260506214517 70 0.0 0.0 0.00 0.00 0.00 57 1012.6
20260506213634 70 270 1.0 1.0 0.00 0.00 0.00 56 1012.5
20260506212611 71 270 1.0 2.0 0.00 0.00 0.00 56 1012.2
20260506211607 71 270 1.0 3.0 0.00 0.00 0.00 55 1011.8
20260506210604 71 270 0.0 3.0 0.00 0.00 0.00 55 1011.7
20260506205601 71 270 1.0 2.0 0.00 0.00 0.00 55 1012.1
20260506204557 71 270 1.0 1.0 0.00 0.00 0.00 55 1012.5
20260506203554 71 270 1.0 2.0 0.00 0.00 0.00 56 1012.5
20260506202550 70 270 1.0 2.0 0.00 0.00 0.00 56 1012.4
20260506201546 70 270 1.0 3.0 0.00 0.00 0.00 56 1012.8
20260506200543 71 270 1.0 1.0 0.00 0.00 0.00 55 1012.9
20260506195540 71 270 0.0 1.0 0.00 0.00 0.00 56 1012.7
20260506194537 70 270 1.0 2.0 0.00 0.00 0.00 55 1012.4
20260506193533 70 270 1.0 2.0 0.00 0.00 0.00 56 1012.7
20260506192549 70 270 1.0 2.0 0.00 0.00 0.00 55 1012.6
20260506191526 70 270 2.0 3.0 0.00 0.00 0.00 56 1012.5
20260506190522 69 219 2.0 7.0 0.00 0.00 0.00 56 1012.4
20260506185519 69 270 1.0 2.0 0.00 0.00 0.00 57 1012.5
20260506184516 69 270 1.0 3.0 0.00 0.00 0.00 56 1012.5
20260506183613 70 270 0.0 3.0 0.00 0.00 0.00 57 1012.6
20260506182610 69 270 0.0 3.0 0.00 0.00 0.00 58 1012.9
20260506181606 68 0.0 1.0 0.00 0.00 0.00 60 1013.0
20260506180603 66 0.0 0.0 0.00 0.00 0.00 62 1013.2
20260506175600 65 0.0 1.0 0.00 0.00 0.00 62 1013.5
20260506174556 65 0.0 0.0 0.00 0.00 0.00 61 1014.3
20260506173553 65 0.0 0.0 0.00 0.00 0.00 60 1014.6
20260506172549 65 0.0 0.0 0.00 0.00 0.00 60 1014.6
20260506171606 65 0.0 0.0 0.00 0.00 0.00 58 1014.6
20260506170542 66 0.0 0.0 0.00 0.00 0.00 57 1014.7
20260506165559 66 270 0.0 2.0 0.00 0.00 0.00 57 1015.0
20260506164555 65 270 0.0 1.0 0.00 0.00 0.00 57 1015.0
20260506163532 65 270 0.0 1.0 0.00 0.00 0.00 58 1015.0
20260506162529 65 270 0.0 1.0 0.00 0.00 0.00 58 1014.8
20260506161525 65 270 0.0 2.0 0.00 0.00 0.00 57 1014.7
20260506160524 65 0.0 0.0 0.00 0.00 0.00 57 1014.6
20260506155518 65 270 1.0 2.0 0.00 0.00 0.00 57 1014.7
20260506154515 65 270 0.0 1.0 0.00 0.00 0.00 55 1014.5
20260506153612 66 270 0.0 1.0 0.00 0.00 0.00 55 1014.1
20260506152629 66 0.0 1.0 0.00 0.00 0.00 55 1014.0
20260506151605 66 262 1.0 3.0 0.00 0.00 0.00 55 1014.0
20260506150602 65 0.0 0.0 0.00 0.00 0.00 56 1014.2
20260506145559 64 270 0.0 1.0 0.00 0.00 0.00 55 1014.2
20260506144555 64 0.0 1.0 0.00 0.00 0.00 55 1014.1
20260506143612 64 0.0 0.0 0.00 0.00 0.00 55 1013.8
20260506142549 64 0.0 0.0 0.00 0.00 0.00 55 1014.1
20260506141545 64 270 0.0 1.0 0.00 0.00 0.00 55 1014.1
20260506140541 65 270 1.0 2.0 0.00 0.00 0.00 55 1014.0
20260506135558 65 270 0.0 1.0 0.00 0.00 0.00 55 1013.8
20260506134535 65 270 1.0 3.0 0.00 0.00 0.00 55 1014.0